Weather History for Pescara, Italy

Change the Weather History Date:

Friday, January 18, 2013

  Actual Average Record
Temperature  
Mean Temperature 38 °F -  
Max Temperature 42 °F 52 °F 70 °F (2014)
Min Temperature 35 °F 36 °F 23 °F (2005)
Degree Days  
Heating Degree Days 26    
Moisture  
Dew Point 31 °F    
Average Humidity 74    
Maximum Humidity 87    
Minimum Humidity 61    
Precipitation  
Precipitation 0.00 in 0.07 in - ()
Sea Level Pressure  
Sea Level Pressure 29.43 in    
Wind  
Wind Speed 10 mph ()    
Max Wind Speed 18 mph    
Max Gust Speed 36 mph    
Visibility 4.7 miles    
Events Rain , Snow    
Averages and records for this station are not official NWS values.
T = Trace of Precipitation, MM = Missing Value Source: Averaged Metar Reports

Daily Weather History Graph

Daily Weather History Graph

Search for Another Location

Airport:

Trip Planner

Search our weather history database for the weather conditions in past years. The results will help you decide how hot, cold, wet, or windy it might be!

Date:

Astronomy

Jan. 18, 2013 Rise Set
Actual Time 7:28 AM CET 4:59 PM CET
Civil Twilight 6:57 AM CET 5:30 PM CET
Nautical Twilight 6:23 AM CET 6:04 PM CET
Astronomical Twilight 5:49 AM CET 6:38 PM CET
Moon 10:47 AM CET (1/18) No Moon Set
Length of Visible Light 10h 32m
Length of Day
9h 30m
Waxing Crescent, 45% of the Moon is Illuminated
Jan 18
Waxing Crescent
Jan 19
First Quarter
Jan 27
Full
Feb 3
Last Quarter
Feb 10
New

Hourly Weather History & Observations

Time (CET) Temp. Windchill Dew Point Humidity Pressure Visibility Wind Dir Wind Speed Gust Speed Precip Events Conditions
12:50 AM 39.2 °F 33.0 °F 33.8 °F 81% 29.33 in 3.1 mi South 9.2 mph - N/A Rain Rain
1:50 AM 37.4 °F 29.8 °F 32.0 °F 81% 29.30 in 2.8 mi SSW 11.5 mph - N/A Rain Rain
2:50 AM 35.6 °F 29.9 °F 30.2 °F 81% 29.30 in 2.2 mi SW 6.9 mph - N/A Snow Snow
3:50 AM 35.6 °F 28.6 °F 30.2 °F 81% 29.27 in 1.9 mi SW 9.2 mph - N/A Rain Rain
4:50 AM 35.6 °F 28.6 °F 32.0 °F 87% 29.27 in 2.8 mi SW 9.2 mph - N/A Rain Rain
5:50 AM 37.4 °F 29.3 °F 33.8 °F 87% 29.24 in 2.5 mi West 12.7 mph - N/A Rain Rain
6:50 AM 39.2 °F 30.2 °F 33.8 °F 81% 29.27 in 6.2 mi WNW 17.3 mph 32.2 mph N/A   Mostly Cloudy
7:02 AM 39.2 °F 29.8 °F 32.0 °F 75% 29.30 in 6.2 mi NW 18.4 mph 35.7 mph N/A   Mostly Cloudy
7:50 AM 35.6 °F 25.9 °F 30.2 °F 81% 29.33 in 1.9 mi WNW 16.1 mph 29.9 mph N/A Rain , Snow Light Rain
7:57 AM 35.6 °F 26.2 °F 30.2 °F 81% 29.36 in 0.9 mi WNW 15.0 mph - N/A Snow Snow
8:50 AM 37.4 °F 28.2 °F 32.0 °F 81% 29.39 in 3.7 mi WNW 16.1 mph - N/A Rain Light Rain
9:50 AM 39.2 °F 31.6 °F 33.8 °F 81% 29.39 in 6.2 mi WNW 12.7 mph - N/A   Mostly Cloudy
10:50 AM 41.0 °F 33.1 °F 33.8 °F 76% 29.42 in 4.3 mi NW 15.0 mph 32.2 mph N/A Rain Light Rain
11:50 AM 39.2 °F 31.6 °F 32.0 °F 75% 29.44 in 3.1 mi WNW 12.7 mph 24.2 mph N/A Rain Light Rain
12:50 PM 41.0 °F 34.7 °F 33.8 °F 76% 29.44 in 6.2 mi WNW 10.4 mph - N/A Rain Light Rain
1:50 PM 42.8 °F 37.0 °F 33.8 °F 70% 29.44 in 6.2 mi WNW 10.4 mph 25.3 mph N/A   Mostly Cloudy
2:50 PM 42.8 °F 35.8 °F 33.8 °F 70% 29.47 in 6.2 mi WNW 13.8 mph - N/A   Mostly Cloudy
3:50 PM 42.8 °F 37.0 °F 33.8 °F 70% 29.50 in 6.2 mi NW 10.4 mph 21.9 mph N/A   Mostly Cloudy
4:50 PM 42.8 °F 37.0 °F 32.0 °F 66% 29.50 in 6.2 mi WNW 10.4 mph - N/A   Mostly Cloudy
5:49 PM 42.8 °F 37.5 °F 30.2 °F 61% 29.53 in 6.2 mi WNW 9.2 mph 20.7 mph N/A   Mostly Cloudy
5:50 PM 42.8 °F 36.6 °F 30.2 °F 61% 29.53 in 6.2 mi WNW 11.5 mph - N/A   Mostly Cloudy
6:50 PM 42.8 °F 37.5 °F 30.2 °F 61% 29.56 in 6.2 mi NW 9.2 mph - N/A   Scattered Clouds
7:50 PM 41.0 °F 37.1 °F 28.4 °F 61% 29.56 in 6.2 mi SW 5.8 mph - N/A   Scattered Clouds
8:50 PM 39.2 °F 35.0 °F 28.4 °F 65% 29.59 in 6.2 mi SW 5.8 mph - N/A   Partly Cloudy
9:50 PM 35.6 °F 31.7 °F 26.6 °F 70% 29.59 in 6.2 mi SW 4.6 mph - N/A   Partly Cloudy
10:50 PM 37.4 °F 32.1 °F 30.2 °F 75% 29.59 in 6.2 mi SW 6.9 mph - N/A   Partly Cloudy
11:50 PM 35.6 °F 31.7 °F 28.4 °F 75% 29.59 in - SW 4.6 mph - N/A   Clear